QPF
0.00 0.00 0.00 0.01 0.01 0.01 0.01 0.04 0.04 0.03 0.02 0.02 0.01 0.00 0.00 0.00 0.01 0.00 0.00 0.01 0.01 0.01 0.02 0.02 0.05 0.10 0.13 0.14 0.14 0.13 0.10 0.09 0.07 0.07 0.08 0.09 0.10 0.11
0.00 0.00 0.00 0.01 0.01 0.00 0.01 0.02 0.03 0.03 0.02 0.01 0.00 0.00 0.00 0.00 0.00 0.00 0.01 0.01 0.01 0.01 0.01 0.02 0.02 0.03 0.06 0.09 0.13 0.13 0.11 0.08 0.06 0.04 0.04 0.04 0.05 0.06
0.00 0.00 0.01 0.01 0.00 0.00 0.01 0.02 0.02 0.01 0.00 0.00 0.00 0.00 0.00 0.00 0.00 0.00 0.00 0.00 0.01 0.01 0.01 0.01 0.01 0.01 0.02 0.03 0.05 0.08 0.10 0.09 0.07 0.04 0.03 0.03 0.02 0.02
0.00 0.00 0.00 0.00 0.00 0.00 0.00 0.00 0.00 0.00 0.00 0.00 0.00 0.00 0.00 0.00 0.00 0.00 0.00 0.00 0.00 0.00 0.01 0.01 0.01 0.01 0.01 0.01 0.01 0.02 0.04 0.05 0.05 0.05 0.03 0.02 0.02 0.01
0.00 0.00 0.00 0.00 0.01 0.01 0.00 0.00 0.00 0.00 0.00 0.00 0.00 0.00 0.00 0.00 0.00 0.00 0.00 0.00 0.00 0.00 0.00 0.01 0.01 0.01 0.01 0.01 0.01 0.01 0.02 0.03 0.03 0.03 0.03 0.02 0.01 0.01
0.00 0.00 0.00 0.00 0.01 0.01 0.00 0.00 0.00 0.00 0.00 0.00 0.00 0.00 0.00 0.00 0.00 0.00 0.00 0.00 0.00 0.00 0.00 0.00 0.00 0.00 0.00 0.00 0.00 0.01 0.01 0.02 0.02 0.02 0.02 0.02 0.02 0.02
0.00 0.00 0.00 0.00 0.00 0.00 0.00 0.00 0.00 0.00 0.00 0.00 0.00 0.00 0.00 0.00 0.00 0.00 0.00 0.00 0.00 0.00 0.00 0.00 0.00 0.00 0.00 0.00 0.00 0.00 0.01 0.01 0.02 0.03 0.02 0.02 0.01 0.01
0.00 0.00 0.00 0.00 0.00 0.00 0.00 0.00 0.00 0.00 0.00 0.00 0.00 0.00 0.00 0.00 0.00 0.00 0.00 0.00 0.00 0.00 0.00 0.00 0.00 0.00 0.00 0.00 0.01 0.00 0.00 0.00 0.00 0.01 0.02 0.02 0.02 0.02
0.00 0.00 0.00 0.00 0.00 0.00 0.00 0.00 0.00 0.00 0.00 0.00 0.00 0.00 0.00 0.00 0.00 0.00 0.00 0.00 0.00 0.00 0.00 0.00 0.00 0.00 0.00 0.00 0.00 0.00 0.00 0.00 0.00 0.00 0.00 0.00 0.01 0.02
0.00 0.00 0.00 0.00 0.00 0.00 0.00 0.00 0.00 0.00 0.00 0.00 0.00 0.00 0.00 0.00 0.00 0.00 0.00 0.00 0.00 0.00 0.00 0.00 0.00 0.00 0.00 0.00 0.00 0.00 0.00 0.00 0.00 0.00 0.00 0.00 0.01 0.01
0.00 0.00 0.00 0.00 0.00 0.00 0.00 0.00 0.00 0.00 0.00 0.00 0.00 0.00 0.00 0.00 0.00 0.00 0.00 0.00 0.00 0.00 0.00 0.00 0.00 0.00 0.00 0.00 0.00 0.00 0.00 0.00 0.00 0.00 0.00 0.00 0.01 0.01
0.00 0.00 0.00 0.00 0.00 0.00 0.01 0.01 0.01 0.01 0.01 0.01 0.01 0.01 0.01 0.00 0.00 0.00 0.00 0.00 0.00 0.00 0.00 0.00 0.00 0.00 0.00 0.00 0.00 0.00 0.00 0.00 0.00 0.00 0.00 0.00 0.00 0.00
0.00 0.00 0.00 0.00 0.00 0.00 0.01 0.01 0.01 0.01 0.01 0.01 0.00 0.00 0.00 0.00 0.00 0.00 0.00 0.00 0.00 0.00 0.00 0.00 0.00 0.00 0.00 0.00 0.00 0.00 0.00 0.00 0.00 0.00 0.00 0.00 0.00 0.00
0.00 0.00 0.00 0.00 0.00 0.00 0.00 0.01 0.01 0.01 0.01 0.01 0.00 0.01 0.00 0.00 0.00 0.01 0.01 0.01 0.01 0.00 0.00 0.00 0.00 0.00 0.00 0.00 0.00 0.00 0.00 0.00 0.00 0.00 0.00 0.01 0.01 0.01
0.00 0.00 0.00 0.00 0.00 0.00 0.00 0.00 0.00 0.00 0.01 0.00 0.00 0.00 0.01 0.00 0.00 0.00 0.01 0.01 0.01 0.00 0.00 0.00 0.00 0.00 0.00 0.00 0.00 0.00 0.00 0.00 0.00 0.00 0.00 0.00 0.01 0.00
0.00 0.00 0.00 0.00 0.00 0.00 0.00 0.00 0.00 0.00 0.00 0.00 0.00 0.00 0.00 0.00 0.00 0.00 0.00 0.00 0.01 0.01 0.00 0.00 0.00 0.00 0.00 0.00 0.00 0.00 0.00 0.00 0.00 0.00 0.00 0.00 0.00 0.00
0.00 0.00 0.00 0.00 0.00 0.00 0.00 0.00 0.00 0.00 0.00 0.00 0.00 0.00 0.00 0.00 0.00 0.00 0.00 0.00 0.00 0.00 0.00 0.00 0.00 0.00 0.00 0.00 0.00 0.00 0.00 0.00 0.00 0.00 0.00 0.00 0.00 0.00
0.00 0.00 0.00 0.00 0.00 0.00 0.00 0.00 0.00 0.00 0.00 0.00 0.00 0.00 0.00 0.00 0.00 0.00 0.00 0.00 0.00 0.00 0.00 0.00 0.00 0.00 0.00 0.00 0.00 0.00 0.00 0.00 0.00 0.01 0.01 0.00 0.00 0.00
0.00 0.00 0.00 0.00 0.00 0.00 0.00 0.00 0.00 0.00 0.00 0.00 0.00 0.00 0.00 0.00 0.00 0.00 0.00 0.00 0.00 0.00 0.00 0.00 0.00 0.00 0.00 0.00 0.00 0.00 0.00 0.00 0.00 0.01 0.01 0.01 0.01 0.00
0.00 0.00 0.00 0.00 0.00 0.00 0.00 0.00 0.00 0.00 0.00 0.00 0.00 0.00 0.00 0.00 0.00 0.00 0.00 0.00 0.00 0.00 0.00 0.00 0.00 0.00 0.00 0.00 0.00 0.00 0.00 0.00 0.00 0.01 0.01 0.01 0.01 0.01
0.00 0.00 0.00 0.00 0.00 0.00 0.00 0.00 0.00 0.00 0.00 0.00 0.00 0.00 0.00 0.00 0.00 0.00 0.00 0.00 0.00 0.00 0.00 0.00 0.00 0.00 0.00 0.00 0.00 0.00 0.00 0.00 0.00 0.02 0.03 0.03 0.02 0.02
0.00 0.00 0.00 0.00 0.00 0.00 0.00 0.00 0.00 0.00 0.00 0.00 0.00 0.00 0.00 0.00 0.00 0.00 0.00 0.00 0.00 0.00 0.00 0.00 0.00 0.00 0.00 0.00 0.00 0.00 0.00 0.00 0.00 0.01 0.02 0.03 0.03 0.02
0.00 0.00 0.00 0.00 0.00 0.00 0.00 0.00 0.00 0.00 0.00 0.00 0.00 0.00 0.00 0.00 0.00 0.00 0.00 0.00 0.00 0.00 0.00 0.00 0.00 0.00 0.00 0.00 0.00 0.00 0.00 0.00 0.00 0.01 0.01 0.01 0.01 0.01
MSLP
1023.66 1023.81 1024.03 1024.32 1024.68 1025.08 1025.49 1025.89 1026.25 1026.56 1026.80 1026.96 1027.03 1027.00 1026.87 1026.66 1026.39 1026.06 1025.72 1025.38 1025.09 1024.86 1024.69 1024.59 1024.55 1024.53 1024.54 1024.53 1024.50 1024.43 1024.34 1024.22 1024.09 1023.95 1023.81 1023.68 1023.54 1023.39
1024.14 1024.22 1024.36 1024.55 1024.79 1025.07 1025.40 1025.74 1026.09 1026.42 1026.72 1026.96 1027.12 1027.20 1027.17 1027.05 1026.84 1026.56 1026.25 1025.93 1025.64 1025.40 1025.23 1025.13 1025.09 1025.09 1025.10 1025.11 1025.10 1025.06 1024.98 1024.87 1024.74 1024.59 1024.44 1024.27 1024.10 1023.89
1024.61 1024.66 1024.73 1024.83 1024.97 1025.16 1025.40 1025.67 1025.99 1026.32 1026.66 1026.96 1027.21 1027.38 1027.44 1027.40 1027.26 1027.04 1026.76 1026.46 1026.18 1025.93 1025.75 1025.63 1025.58 1025.56 1025.57 1025.58 1025.57 1025.53 1025.45 1025.35 1025.22 1025.07 1024.90 1024.71 1024.51 1024.28
1025.02 1025.07 1025.11 1025.15 1025.22 1025.33 1025.49 1025.72 1026.00 1026.32 1026.67 1027.02 1027.33 1027.56 1027.70 1027.73 1027.65 1027.48 1027.23 1026.95 1026.67 1026.41 1026.21 1026.06 1025.97 1025.92 1025.90 1025.88 1025.85 1025.80 1025.71 1025.61 1025.47 1025.32 1025.15 1024.97 1024.76 1024.52
1025.34 1025.40 1025.44 1025.46 1025.49 1025.55 1025.67 1025.85 1026.09 1026.40 1026.75 1027.11 1027.45 1027.73 1027.91 1027.99 1027.96 1027.83 1027.61 1027.34 1027.06 1026.79 1026.56 1026.37 1026.24 1026.14 1026.07 1026.01 1025.94 1025.86 1025.76 1025.64 1025.51 1025.36 1025.21 1025.03 1024.84 1024.62
1025.53 1025.62 1025.68 1025.71 1025.73 1025.77 1025.86 1026.01 1026.22 1026.51 1026.84 1027.19 1027.53 1027.82 1028.03 1028.13 1028.13 1028.02 1027.83 1027.58 1027.29 1027.02 1026.76 1026.54 1026.36 1026.21 1026.08 1025.97 1025.85 1025.74 1025.61 1025.48 1025.35 1025.21 1025.08 1024.92 1024.76 1024.56
1025.57 1025.70 1025.79 1025.84 1025.87 1025.92 1026.00 1026.13 1026.32 1026.57 1026.87 1027.19 1027.51 1027.78 1027.98 1028.09 1028.10 1028.01 1027.84 1027.61 1027.34 1027.06 1026.79 1026.55 1026.33 1026.13 1025.95 1025.79 1025.63 1025.47 1025.32 1025.18 1025.04 1024.92 1024.80 1024.67 1024.54 1024.38
1025.47 1025.63 1025.74 1025.82 1025.88 1025.94 1026.02 1026.14 1026.31 1026.52 1026.78 1027.06 1027.33 1027.57 1027.75 1027.85 1027.87 1027.79 1027.65 1027.44 1027.20 1026.93 1026.67 1026.41 1026.17 1025.94 1025.72 1025.51 1025.31 1025.11 1024.94 1024.78 1024.64 1024.52 1024.41 1024.31 1024.19 1024.05
1025.22 1025.40 1025.54 1025.65 1025.74 1025.81 1025.90 1026.01 1026.15 1026.33 1026.54 1026.77 1026.99 1027.19 1027.34 1027.42 1027.44 1027.39 1027.27 1027.10 1026.89 1026.66 1026.42 1026.17 1025.92 1025.67 1025.43 1025.18 1024.94 1024.72 1024.51 1024.33 1024.18 1024.05 1023.94 1023.84 1023.74 1023.60
1024.84 1025.03 1025.19 1025.32 1025.43 1025.52 1025.61 1025.72 1025.84 1025.98 1026.15 1026.33 1026.50 1026.66 1026.78 1026.86 1026.88 1026.85 1026.77 1026.65 1026.49 1026.30 1026.09 1025.87 1025.62 1025.37 1025.10 1024.83 1024.56 1024.30 1024.07 1023.86 1023.68 1023.54 1023.41 1023.30 1023.18 1023.04
1024.34 1024.53 1024.70 1024.85 1024.97 1025.08 1025.18 1025.28 1025.39 1025.50 1025.63 1025.77 1025.91 1026.04 1026.14 1026.22 1026.26 1026.26 1026.22 1026.15 1026.03 1025.89 1025.72 1025.51 1025.28 1025.03 1024.75 1024.46 1024.16 1023.87 1023.60 1023.36 1023.16 1022.98 1022.83 1022.69 1022.54 1022.36
1023.73 1023.92 1024.10 1024.26 1024.41 1024.53 1024.63 1024.73 1024.83 1024.93 1025.04 1025.15 1025.27 1025.38 1025.48 1025.57 1025.63 1025.66 1025.65 1025.62 1025.55 1025.44 1025.30 1025.11 1024.89 1024.63 1024.34 1024.03 1023.71 1023.40 1023.10 1022.83 1022.59 1022.37 1022.18 1022.00 1021.81 1021.61
1023.03 1023.23 1023.42 1023.60 1023.75 1023.88 1024.00 1024.10 1024.19 1024.28 1024.38 1024.48 1024.59 1024.71 1024.81 1024.91 1024.99 1025.04 1025.07 1025.06 1025.02 1024.93 1024.80 1024.62 1024.39 1024.13 1023.83 1023.50 1023.17 1022.83 1022.51 1022.21 1021.94 1021.69 1021.46 1021.24 1021.01 1020.77
1022.26 1022.48 1022.68 1022.87 1023.03 1023.17 1023.29 1023.39 1023.48 1023.57 1023.67 1023.78 1023.89 1024.01 1024.13 1024.24 1024.33 1024.40 1024.43 1024.43 1024.39 1024.30 1024.16 1023.98 1023.74 1023.47 1023.16 1022.83 1022.48 1022.14 1021.80 1021.48 1021.19 1020.91 1020.65 1020.40 1020.13 1019.85
1021.45 1021.68 1021.89 1022.09 1022.26 1022.40 1022.51 1022.61 1022.71 1022.80 1022.90 1023.01 1023.13 1023.26 1023.38 1023.49 1023.59 1023.65 1023.68 1023.67 1023.61 1023.49 1023.34 1023.13 1022.89 1022.60 1022.29 1021.96 1021.61 1021.27 1020.94 1020.62 1020.31 1020.02 1019.73 1019.45 1019.15 1018.83
1020.60 1020.85 1021.07 1021.27 1021.43 1021.56 1021.67 1021.76 1021.85 1021.94 1022.04 1022.16 1022.28 1022.41 1022.53 1022.64 1022.72 1022.77 1022.77 1022.72 1022.62 1022.48 1022.29 1022.06 1021.80 1021.52 1021.21 1020.89 1020.57 1020.24 1019.93 1019.61 1019.31 1019.00 1018.69 1018.38 1018.04 1017.69
1019.75 1020.00 1020.22 1020.40 1020.55 1020.66 1020.75 1020.82 1020.90 1020.98 1021.08 1021.19 1021.31 1021.44 1021.55 1021.64 1021.70 1021.71 1021.67 1021.58 1021.44 1021.26 1021.04 1020.79 1020.52 1020.24 1019.95 1019.66 1019.36 1019.07 1018.78 1018.48 1018.17 1017.85 1017.52 1017.17 1016.79 1016.39
1018.88 1019.12 1019.32 1019.48 1019.60 1019.68 1019.74 1019.79 1019.84 1019.91 1019.99 1020.10 1020.21 1020.33 1020.42 1020.49 1020.52 1020.49 1020.41 1020.28 1020.10 1019.88 1019.63 1019.37 1019.11 1018.84 1018.58 1018.32 1018.06 1017.80 1017.52 1017.23 1016.92 1016.58 1016.21 1015.81 1015.38 1014.92
1018.00 1018.21 1018.37 1018.49 1018.57 1018.61 1018.63 1018.65 1018.68 1018.73 1018.80 1018.90 1019.00 1019.11 1019.19 1019.23 1019.23 1019.17 1019.05 1018.88 1018.67 1018.43 1018.17 1017.91 1017.66 1017.41 1017.18 1016.95 1016.73 1016.48 1016.22 1015.93 1015.59 1015.21 1014.78 1014.31 1013.80 1013.27
1017.09 1017.26 1017.37 1017.44 1017.46 1017.46 1017.44 1017.42 1017.43 1017.47 1017.53 1017.62 1017.72 1017.81 1017.88 1017.91 1017.89 1017.81 1017.67 1017.48 1017.26 1017.01 1016.75 1016.50 1016.27 1016.05 1015.84 1015.64 1015.42 1015.19 1014.91 1014.58 1014.20 1013.75 1013.24 1012.69 1012.09 1011.47
1016.17 1016.26 1016.31 1016.31 1016.28 1016.23 1016.17 1016.13 1016.12 1016.15 1016.21 1016.30 1016.40 1016.50 1016.57 1016.59 1016.57 1016.48 1016.34 1016.15 1015.93 1015.69 1015.45 1015.22 1015.00 1014.80 1014.61 1014.42 1014.20 1013.94 1013.62 1013.24 1012.78 1012.24 1011.64 1010.98 1010.29 1009.57
1015.23 1015.25 1015.22 1015.15 1015.05 1014.95 1014.86 1014.80 1014.78 1014.80 1014.87 1014.97 1015.09 1015.20 1015.28 1015.32 1015.31 1015.24 1015.11 1014.94 1014.73 1014.52 1014.30 1014.09 1013.89 1013.71 1013.52 1013.31 1013.06 1012.75 1012.37 1011.90 1011.35 1010.71 1010.00 1009.23 1008.44 1007.64
1014.32 1014.24 1014.12 1013.98 1013.82 1013.68 1013.56 1013.48 1013.45 1013.48 1013.56 1013.68 1013.82 1013.95 1014.06 1014.12 1014.13 1014.09 1013.99 1013.85 1013.68 1013.49 1013.30 1013.12 1012.94 1012.75 1012.54 1012.30 1012.00 1011.63 1011.16 1010.59 1009.93 1009.18 1008.36 1007.49 1006.61 1005.73
Thickness
5686 5685 5684 5683 5683 5682 5681 5679 5674 5667 5666 5668 5672 5676 5678 5681 5683 5685 5687 5688 5689 5691 5692 5694 5695 5696 5697 5699 5700 5701 5702 5703 5704 5704 5705 5706 5706 5707
5684 5683 5682 5681 5681 5680 5678 5676 5674 5670 5664 5664 5666 5670 5673 5675 5677 5680 5681 5682 5684 5685 5686 5687 5688 5689 5690 5691 5692 5693 5694 5694 5695 5696 5696 5697 5698 5699
5682 5681 5679 5678 5677 5676 5675 5672 5670 5668 5663 5661 5662 5665 5668 5670 5672 5674 5675 5676 5677 5678 5679 5680 5681 5682 5683 5683 5684 5684 5685 5686 5686 5687 5688 5689 5690 5691
5679 5678 5676 5676 5674 5672 5670 5668 5666 5664 5662 5658 5658 5660 5662 5664 5665 5667 5668 5669 5670 5670 5671 5672 5673 5674 5674 5675 5675 5676 5677 5677 5678 5679 5680 5681 5681 5682
5677 5675 5673 5672 5670 5668 5666 5664 5662 5661 5658 5656 5653 5654 5655 5657 5659 5660 5661 5662 5663 5663 5664 5664 5665 5665 5666 5667 5667 5668 5668 5669 5670 5670 5671 5672 5673 5674
5674 5673 5671 5669 5667 5665 5663 5660 5658 5655 5653 5650 5648 5648 5648 5650 5650 5650 5652 5652 5653 5655 5656 5656 5656 5657 5658 5658 5659 5659 5659 5660 5661 5661 5662 5663 5663 5664
5670 5669 5668 5667 5665 5663 5660 5656 5654 5650 5647 5644 5642 5642 5641 5642 5642 5641 5642 5643 5645 5645 5646 5647 5648 5649 5649 5649 5649 5649 5650 5650 5651 5651 5652 5652 5653 5654
5666 5665 5664 5663 5662 5660 5658 5655 5652 5647 5643 5640 5637 5636 5635 5635 5635 5635 5634 5634 5635 5637 5636 5637 5638 5638 5639 5639 5639 5639 5639 5640 5640 5640 5641 5642 5643 5643
5663 5661 5660 5659 5657 5655 5653 5651 5648 5645 5643 5638 5634 5632 5631 5631 5629 5628 5626 5625 5625 5628 5627 5628 5628 5628 5629 5629 5629 5629 5629 5629 5629 5629 5630 5631 5632 5632
5659 5657 5655 5653 5652 5649 5647 5644 5641 5639 5638 5635 5632 5630 5629 5627 5625 5622 5620 5619 5618 5619 5618 5618 5619 5619 5620 5620 5619 5619 5618 5618 5618 5618 5619 5619 5620 5620
5654 5652 5650 5648 5647 5645 5641 5637 5635 5633 5632 5630 5627 5625 5623 5621 5619 5616 5613 5611 5610 5611 5609 5607 5608 5609 5611 5611 5610 5608 5607 5607 5606 5606 5607 5607 5607 5607
5648 5647 5646 5644 5642 5639 5636 5632 5629 5627 5625 5623 5620 5618 5616 5614 5612 5609 5606 5603 5601 5600 5600 5597 5597 5596 5599 5600 5599 5598 5596 5595 5594 5594 5593 5593 5592 5592
5643 5641 5640 5639 5636 5634 5631 5627 5624 5622 5618 5615 5611 5609 5607 5605 5603 5601 5598 5595 5592 5590 5590 5587 5585 5582 5581 5584 5587 5586 5584 5582 5582 5581 5579 5578 5576 5574
5639 5637 5635 5633 5630 5627 5624 5621 5618 5614 5609 5605 5602 5599 5597 5595 5593 5591 5589 5586 5583 5581 5579 5576 5573 5570 5568 5570 5572 5573 5571 5569 5567 5566 5565 5564 5561 5559
5635 5632 5629 5626 5623 5620 5617 5613 5610 5605 5600 5596 5593 5591 5588 5586 5583 5581 5578 5575 5573 5570 5568 5564 5561 5558 5555 5554 5556 5558 5557 5557 5554 5552 5550 5548 5545 5543
5627 5624 5622 5618 5614 5611 5608 5604 5600 5596 5592 5588 5585 5582 5579 5575 5572 5569 5566 5564 5561 5560 5557 5553 5550 5546 5544 5543 5541 5542 5540 5538 5539 5536 5534 5533 5530 5527
5620 5615 5611 5607 5603 5600 5597 5594 5590 5586 5582 5579 5575 5572 5568 5565 5562 5559 5555 5551 5548 5547 5546 5543 5538 5535 5532 5530 5529 5529 5527 5525 5522 5519 5518 5519 5519 5513
5611 5606 5602 5599 5595 5592 5588 5584 5581 5577 5574 5570 5566 5562 5559 5556 5552 5549 5544 5540 5537 5536 5533 5530 5526 5523 5522 5521 5517 5515 5513 5510 5509 5505 5500 5500 5505 5503
5603 5599 5596 5592 5588 5584 5580 5576 5572 5569 5565 5560 5557 5553 5549 5546 5542 5538 5534 5530 5527 5524 5522 5517 5512 5508 5507 5512 5512 5503 5498 5497 5494 5491 5487 5484 5486 5489
5596 5593 5589 5585 5580 5576 5572 5568 5564 5560 5555 5551 5547 5544 5540 5535 5532 5528 5524 5520 5517 5514 5510 5506 5500 5496 5493 5495 5497 5495 5486 5479 5477 5476 5475 5473 5472 5472
5589 5585 5581 5577 5572 5568 5564 5559 5555 5551 5546 5542 5538 5534 5530 5526 5522 5519 5515 5511 5506 5502 5499 5497 5493 5487 5482 5478 5479 5483 5479 5469 5462 5458 5457 5456 5458 5460
5582 5578 5574 5569 5564 5560 5555 5550 5546 5541 5537 5533 5529 5525 5521 5516 5513 5509 5505 5500 5496 5492 5489 5486 5481 5475 5468 5465 5465 5468 5468 5464 5457 5450 5444 5440 5436 5441
5574 5570 5566 5561 5556 5551 5546 5542 5537 5533 5529 5525 5521 5517 5512 5508 5504 5499 5495 5490 5485 5481 5477 5473 5469 5463 5458 5454 5452 5452 5452 5450 5447 5445 5443 5436 5430 5429